Regional Weather Roundup
Issued by NWS

Home | Current Version | Previous Version | Text Only | Print | Product List | Glossary Off
Versions: 1 2 3 4 5 6 7 8 9 10 11 12 13 14 15 16 17 18 19 20 21 22 23 24 25 26 27 28 29 30 31 32 33 34 35 36 37 38 39 40 41 42 43 44 45 46 47 48 49 50

000
ASUS43 KOAX 301110
RWRNE

WEATHER ROUNDUP FOR NEBRASKA
NATIONAL WEATHER SERVICE OMAHA NE
600 AM CDT THU JUL 30 2015

NOTES: SATELLITE DATA IS BEING USED TO AUGMENT CLOUD COVER ABOVE
       12000 FEET.
       "FAIR" INDICATES FEW OR NO CLOUDS BELOW 12,000 FEET WITH NO
       SIGNIFICANT WEATHER AND/OR OBSTRUCTIONS TO VISIBILITY.

  * THESE STATIONS DO NOT REPORT WEATHER SUCH AS RAIN...SNOW OR FOG.

NEZ001>004-019>022-054>056-301200-
NEBRASKA PANHANDLE

CITY           SKY/WX    TMP DP  RH WIND       PRES   REMARKS
SCOTTSBLUFF    CLEAR     57  51  80 E6        30.24F
ALLIANCE       MOCLDY    56  50  80 S7        30.24F
CHADRON        CLEAR     51  48  89 W3        30.24R
KIMBALL        CLEAR     58  51  77 SW5       30.28S
SIDNEY         CLEAR     58  55  90 S9        30.28S
$$

NEZ057>060-069>072-079>082-301200-
SOUTHWEST NEBRASKA

CITY           SKY/WX    TMP DP  RH WIND       PRES   REMARKS
NORTH PLATTE   CLEAR     60  53  77 S7        30.25R
IMPERIAL       CLEAR     54  50  86 S5        30.27S
LEXINGTON      CLEAR     55  53  94 CALM      30.24S
MCCOOK         CLEAR     56  52  86 CALM      30.25S
OGALLALA       CLEAR     57  53  85 CALM      30.26S
$$

NEZ005>010-023>029-035>040-094-301200-
NORTH CENTRAL NEBRASKA

CITY           SKY/WX    TMP DP  RH WIND       PRES   REMARKS
VALENTINE      CLEAR     57  50  77 SW9       30.21R
AINSWORTH      CLEAR     59  54  83 W3        30.22R
BROKEN BOW     CLEAR     61  54  77 S5        30.22F
O`NEILL        CLEAR     59  54  83 SW6       30.19S
ORD            CLEAR     56  54  93 CALM      30.20F
THEDFORD       CLEAR     61  54  76 W5        30.23S
$$

NEZ041-046>049-061>064-073>077-083>087-301200-
SOUTH CENTRAL NEBRASKA

CITY           SKY/WX    TMP DP  RH WIND       PRES   REMARKS
GRAND ISLAND   CLEAR     59  53  80 SW5       30.22S
AURORA         CLEAR     58  54  86 SW7       30.21F
HASTINGS       CLEAR     60  52  74 SW3       30.23S
HEBRON         CLEAR     56  54  92 CALM      30.21S
HOLDREGE       CLEAR     56  51  83 CALM      30.24S
KEARNEY *      CLEAR     59  52  77 SW7       30.23F
YORK           CLEAR     54  54 100 CALM      30.21F
$$

NEZ011>018-030>034-042>045-301200-
NORTHEAST NEBRASKA

CITY           SKY/WX    TMP DP  RH WIND       PRES   REMARKS
NORFOLK        CLEAR     55  52  89 CALM      30.19S
ALBION         CLEAR     62  51  66 CALM      30.20S
BLAIR          CLEAR     60  56  88 S3        30.18S
COLUMBUS *     CLEAR     61  52  72 W6        30.20R
FREMONT        CLEAR     64  55  74 CALM      30.18S
TEKAMAH        CLEAR     61  58  90 SE5       30.16S
WAYNE          CLEAR     58  56  92 CALM      30.19S
$$

NEZ050>053-065>068-078-088>093-301200-
SOUTHEAST NEBRASKA

CITY           SKY/WX    TMP DP  RH WIND       PRES   REMARKS
LINCOLN        CLEAR     60  57  89 S3        30.20S
OMAHA EPPLEY   CLEAR     65  60  84 SE5       30.17F
BEATRICE       CLEAR     58  58  98 CALM      30.20S
FALLS CITY     CLEAR     61  61 100 CALM      30.18S FOG
NEBRASKA CITY  CLEAR     62  58  87 CALM      30.19S
PLATTSMOUTH    CLEAR     64  57  78 SW5       30.18F
$$

NEZ044-045-051>053-067-301200-
OMAHA AREA

CITY           SKY/WX    TMP DP  RH WIND       PRES   REMARKS
OMAHA EPPLEY   CLEAR     65  60  84 SE5       30.17F
BLAIR          CLEAR     60  56  88 S3        30.18S
FREMONT        CLEAR     64  55  74 CALM      30.18S
MILLARD        CLEAR     61  59  95 CALM      30.18S
OFFUTT AFB     CLEAR     56  55  98 CALM      30.17S
PLATTSMOUTH    CLEAR     64  57  78 SW5       30.18F
WAHOO          FAIR      63  56  80 SW5       30.17F
$$



USA.gov is the U.S. government's official web portal to all federal, state and local government web resources and services.